Regional Weather Roundup
Issued by NWS Lake Charles, LA

Current Version | Previous Version | Text Only | Print | Product List | Glossary On
Versions: 1 2 3 4 5 6 7 8 9 10 11 12 13 14 15 16 17 18 19 20 21 22 23 24 25 26 27 28 29 30 31 32 33 34 35 36 37 38 39 40 41 42 43 44 45 46 47 48 49 50
000
ASUS44 KLCH 022310
RWRLCH
RWRLCH
REGIONAL WEATHER ROUNDUP
NATIONAL WEATHER SERVICE LAKE CHARLES LA
600 PM CDT TUE SEP 02 2014

Note: "fair" indicates few or no clouds below 12,000 feet with no
significant weather and/or obstructions to visibility.


ACROSS SOUTHEAST TEXAS

CITY           SKY/WX    TMP DP  RH WIND       PRES   REMARKS
BEAUMONT       SUNNY     88  75  65 S10       29.96S
BEAUMONT CITY    N/A     87  76  70 S7        29.97R
ORANGE         PTCLDY    88  75  65 S8        29.99R
JASPER         CLOUDY    80  75  86 CALM      30.01S
$$

ACROSS CENTRAL LOUISIANA

CITY           SKY/WX    TMP DP  RH WIND       PRES   REMARKS
LEESVILLE      TSTM      72  72 100 W5        30.03R FOG
FULLERTON      TSTM      78  72  81 CALM      30.01R
ALEXANDRIA INT CLOUDY    76  73  91 CALM      29.99F
ESLER FIELD    CLOUDY    76  73  91 VRB3      30.00F
DERIDDER         N/A     77  73  88 CALM      30.03R THUNDER FOG
OAKDALE        CLOUDY    77  74  91 N13       30.00S THUNDER
OPELOUSAS      MOCLDY    76  74  92 NE6       30.00R
$$

ACROSS SOUTHWEST AND SOUTH CENTRAL LOUISIANA

CITY           SKY/WX    TMP DP  RH WIND       PRES   REMARKS
SULPHUR        PTCLDY    88  76  65 SE12      29.98S
LAKE CHARLES   MOSUNNY   87  75  67 S7        29.98R
CHENNAULT INT  NOT AVBL
CAMERON PHI    PTCLDY    86  77  74 S8        29.99R
DEQUINCY         N/A     83  79  86 CALM      29.99R
JENNINGS         N/A     88  73  61 SW8       29.98S
LAFAYETTE      PTSUNNY   89  72  56 SW7       29.98S
NEW IBERIA     MOSUNNY   89  75  63 S8        29.99S
ABBEVILLE        N/A     87  74  64 S5        29.99S
PATTERSON      MOSUNNY   88  75  66 NW3       30.02R
SALT POINT       N/A     91  77  63 CALM      29.99R HX 104
$$

SELECTED SITES ACROSS THE REGION

CITY           SKY/WX    TMP DP  RH WIND       PRES   REMARKS
HOUSTON BUSH   PTSUNNY   86  73  66 SE22      29.95R
HOUSTON HOBBY  PTSUNNY   89  72  56 SE12G21   29.94S
GALVESTON      MOSUNNY   87  77  72 SE12      29.96S
COLLEGE STAT   MOSUNNY   93  67  42 S15       29.91S
CONROE         MOSUNNY   90  72  55 SE16      29.95R
HUNTSVILLE     LGT RAIN  80  75  84 E3        29.95F
LUFKIN         CLOUDY    79  75  87 SE3       29.96F
SHREVEPORT     CLOUDY    76  73  91 S7        29.93F
MONROE         LGT RAIN  73  72  94 CALM      29.98F
NATCHEZ MS     CLOUDY    75  72  88 NW8       30.05R
BATON ROUGE    CLOUDY    79  71  76 E16G32    30.01R THUNDER
N.O. INTL ARPT PTSUNNY   89  73  59 S9        29.99S
SLIDELL        PTSUNNY   87  74  64 S7        29.99R
$$

MARINE REPORTS

STATION/POSITION TIME  TEMP    WIND        PRES    VSBY  WAVE
                       AIR SEA DIR/SP/G                  HT/PER
                 (UTC) (F)     (DEG/KT/KT) (MB)    (MI)  (FT/S)
BUOY 30 S HIGH I 2300   85 85  120/ 12/ 14 1013.9S         4/ 8
SEA RIM ST PARK  2300   85     150/  8/ 11 1015.4R
PORT ARTHUR      2300      86  150/  5/  9 1014.9R
SABINE PASS N    2300   85 86  140/ 10/ 13 1014.9R
TEXAS POINT      2300   84 86  130/ 11/ 12 1015.1R
CALCASIEU PASS   2300   85 85  160/  7/ 10 1016.5R
LK CHARLES BEACH 2300   89 83              1015.9R
MARSH ISLAND     NOT AVBL
FRESH WATER LOCK 2300   87 86  130/  6/  8 1015.5R
AMERADA PASS     2300   87 89  150/  4/  6 1015.5R
$$



USA.gov is the U.S. government's official web portal to all federal, state and local government web resources and services.